Flag for U.S.A. Weather past 2 weeks in Wichita, Kansas, U.S.A.

Now
81 °F

Partly sunny.


Feels Like: 85 °F
Forecast: 73 / 89 °F
Wind: 8 mph from Northeast

Location: Wichita Mid-Continent Airport

Current Time: Jul 2, 2015 at 11:56:32 AM

Latest Report: Jul 2, 2015 at 10:53 AM


Visibility: 10 mi

Pressure: 29.86 "Hg

Humidity: 72%

Dew point: 71 °F

Location of WichitaLocation

Historic Weather in Wichita — Graph

°F

Wichita temperature yesterday

Maximum temperature yesterday: 97 °F (at 5:53 PM)
Minimum temperature yesterday: 73 °F (at 5:53 AM)
Average temperature yesterday: 86 °F

Past Weeks' High & Low Weather Summary

 TemperatureHumidityPressure
High99 °F (Jun 30, 3:53 PM)91% (Jun 19, 2:53 AM)30.10 "Hg (Jun 19, 2:53 AM)
Low65 °F (Jun 28, 5:53 AM)26% (Jun 28, 3:53 PM)29.69 "Hg (Jul 1, 6:53 PM)
Average82 °F59%29.90 "Hg
* Reported Jun 17 9:53 AM — Jul 2 9:53 AM, Wichita, Weather by CustomWeather, © 2015

Note: Actual official high and low records may vary slightly from our data, if they occured in-between our weather recording intervals... More about our weather records

Advertising

Wichita weather history for previous 24 hours

 ConditionsComfort  
Time TempWeatherWind HumidityBarometerVisibility
9:53 AM
Thu, Jul 2
80 °FPartly sunny.12 mph74%29.85 "Hg10 mi
8:53 AM78 °FPartly sunny.15 mph79%29.85 "Hg10 mi
7:53 AM77 °FBroken clouds.9 mph85%29.83 "Hg10 mi
6:53 AM76 °FPartly cloudy.6 mph88%29.81 "Hg8 mi
5:53 AM76 °FPartly cloudy.6 mph88%29.81 "Hg10 mi
4:53 AM77 °FPassing clouds.No wind85%29.80 "Hg10 mi
3:53 AM76 °FPassing clouds.3 mph88%29.78 "Hg10 mi
2:53 AM78 °FPartly cloudy.12 mph82%29.78 "Hg10 mi
1:53 AM79 °FPartly cloudy.9 mph67%29.76 "Hg10 mi
12:53 AM79 °FPartly cloudy.8 mph65%29.75 "Hg10 mi
11:53 PM
Wed, Jul 1
78 °FPartly cloudy.3 mph66%29.77 "Hg10 mi
10:53 PM81 °FPassing clouds.No wind60%29.77 "Hg10 mi
9:53 PM84 °FScattered clouds.3 mph55%29.74 "Hg10 mi
8:53 PM89 °FScattered clouds.8 mph45%29.71 "Hg10 mi
7:53 PM95 °FScattered clouds.6 mph39%29.70 "Hg10 mi
6:53 PM97 °FScattered clouds.8 mph36%29.69 "Hg10 mi
5:53 PM97 °FBroken clouds.5 mph39%29.69 "Hg10 mi
4:53 PM94 °FBroken clouds.5 mph44%29.70 "Hg10 mi
3:53 PM94 °FCloudy.7 mph41%29.72 "Hg10 mi
2:53 PM91 °FLight rain. Partly sunny.6 mph47%29.72 "Hg9 mi
1:53 PM94 °FBroken clouds.13 mph36%29.73 "Hg10 mi
12:53 PM94 °FLight rain. Broken clouds.9 mph35%29.75 "Hg10 mi
11:53 AM92 °FBroken clouds.15 mph40%29.75 "Hg10 mi
Weather by CustomWeather, © 2015

See weather overviewHow to use our weather pages